Weather reports worldwide

Advertisment
Montauban, France (7540): temperature & dewpoint: 16.03.2019 18:00:00 - 22.03.2019 18:00:00 (CET)Montauban, France (7540): temperature 5cm: 16.03.2019 18:00:00 - 22.03.2019 18:00:00 (CET)Montauban, France (7540): temperature -20cm & temperature -100cm: 16.03.2019 18:00:00 - 22.03.2019 18:00:00 (CET)Montauban, France (7540): wind speed & gusts: 16.03.2019 18:00:00 - 22.03.2019 18:00:00 (CET)Montauban, France (7540): wind direction: 16.03.2019 18:00:00 - 22.03.2019 18:00:00 (CET)Montauban, France (7540): reduced air pressure: 16.03.2019 18:00:00 - 22.03.2019 18:00:00 (CET)Montauban, France (7540): visibility: 16.03.2019 18:00:00 - 22.03.2019 18:00:00 (CET)Montauban, France (7540): sunshine duration: 16.03.2019 18:00:00 - 22.03.2019 18:00:00 (CET)Montauban, France (7540): precipitation: 16.03.2019 18:00:00 - 22.03.2019 18:00:00 (CET)
Date & Time tt [°C] td [°C] tt 5cm [°C] tt -20cm [°C] tt -100cm [°C] ff [km/h] ff [kn] fx [km/h] fx [kn] dd ppp [hPa] vv [km] sd [min] rr [mm]
22.03.2019 18:00:00 20,4 1,3 23,7 11,3 11,1 0 0 10 5 N 1025,8 20 60 0,0
22.03.2019 17:00:00 20,5 0,8 24,9 11,0 11,1 5 3 10 5 ESE 1025,9 20 60 0,0
22.03.2019 16:00:00 20,9 0,1 26,0 10,7 11,1 3 2 13 7 ESE 1026,5 20 60 0,0
22.03.2019 15:00:00 19,8 -0,8 24,7 10,4 11,1 5 3 11 6 NE 1027,2 20 60 0,0
22.03.2019 14:00:00 18,7 -1,2 24,4 10,2 11,1 5 3 9 5 ENE 1027,8 20 60 0,0
22.03.2019 13:00:00 17,9 3,0 21,5 10,1 11,1 2 1 10 6 WSW 1028,8 20 60 -
22.03.2019 12:00:00 15,4 1,9 19,7 10,0 11,1 3 1 10 5 NW 1029,4 19 60 0,0
22.03.2019 11:00:00 13,2 1,8 17,8 10,1 11,1 0 0 7 4 N 1030,0 20 60 0,0
22.03.2019 10:00:00 10,5 2,1 12,7 10,1 11,1 0 0 6 3 N 1030,2 20 60 0,0
22.03.2019 09:00:00 7,0 0,9 8,3 10,3 11,1 2 1 4 2 E 1030,2 20 60 0,0
22.03.2019 08:00:00 2,2 -0,1 -2,2 10,5 11,1 0 0 4 2 N 1030,2 19 44 0,0
22.03.2019 07:00:00 -0,2 -1,8 -2,3 10,6 11,1 2 1 4 2 E 1029,8 18 0 0,0
22.03.2019 06:00:00 0,4 -1,7 -2,0 10,7 11,1 0 0 3 2 N 1029,4 20 0 0,0
22.03.2019 05:00:00 1,1 -1,1 -1,6 10,8 11,1 0 0 3 2 N 1029,4 20 0 0,0
22.03.2019 04:00:00 1,5 -0,7 -1,4 11,0 11,1 0 0 3 2 N 1029,5 20 0 0,0
22.03.2019 03:00:00 1,4 -0,8 -1,2 11,1 11,1 0 0 4 2 N 1029,5 20 0 0,0
22.03.2019 02:00:00 1,9 -0,7 -0,6 11,2 11,1 0 0 8 4 N 1029,4 20 0 0,0
22.03.2019 01:00:00 2,7 -0,6 -0,2 11,3 11,1 4 2 6 3 E 1029,3 20 0 0,0
22.03.2019 00:00:00 3,1 -0,5 0,3 11,4 11,1 0 0 5 3 N 1029,5 20 0 0,0
21.03.2019 23:00:00 4,5 -0,5 0,9 11,4 11,1 2 1 5 3 E 1029,4 19 0 0,0
21.03.2019 22:00:00 6,3 0,2 2,2 11,5 11,1 2 1 4 2 SSE 1029,1 17 0 0,0
21.03.2019 21:00:00 8,1 0,6 3,8 11,4 11,1 2 1 5 3 SSW 1028,7 19 0 0,0
21.03.2019 20:00:00 9,9 0,2 4,3 11,3 11,1 0 0 6 3 N 1028,4 19 0 0,0
21.03.2019 19:00:00 13,9 -2,1 10,5 11,1 11,1 2 1 9 5 SSE 1027,9 20 46 0,0
21.03.2019 18:00:00 15,7 -2,8 20,0 10,9 11,1 3 2 13 7 SE 1027,8 20 60 0,0
21.03.2019 17:00:00 16,1 -2,4 21,0 10,6 11,1 3 2 18 10 ESE 1027,8 20 60 0,0
21.03.2019 16:00:00 16,6 -0,6 21,5 10,4 11,1 6 4 17 9 NW 1028,0 20 60 0,0
21.03.2019 15:00:00 15,8 -1,8 21,5 10,1 11,1 7 4 16 9 N 1028,4 20 60 0,0
21.03.2019 14:00:00 14,8 -1,8 20,5 9,9 11,1 5 3 12 6 W 1029,0 19 60 0,0
21.03.2019 13:00:00 13,8 0,4 19,3 9,8 11,1 5 3 15 8 W 1029,9 20 60 0,0
21.03.2019 12:00:00 12,8 -0,5 17,8 9,8 11,1 4 2 11 6 W 1030,2 20 60 0,0
21.03.2019 11:00:00 11,2 0,9 16,3 9,8 11,1 3 2 14 7 SSE 1030,5 20 60 0,0
21.03.2019 10:00:00 8,4 -0,1 11,0 9,9 11,1 4 2 14 8 S 1030,7 20 60 0,0
21.03.2019 09:00:00 5,8 -0,1 6,0 10,0 11,1 3 1 8 4 WSW 1031,1 20 60 0,0
21.03.2019 08:00:00 1,8 -0,8 -2,5 10,2 11,1 0 0 5 3 N 1031,2 19 43 0,0
21.03.2019 07:00:00 -0,3 -2,0 -3,8 10,3 11,1 2 1 3 2 ESE 1030,8 20 0 0,0
21.03.2019 06:00:00 -0,9 -2,8 -3,4 10,5 11,1 0 0 3 2 N 1030,4 20 0 0,0
21.03.2019 05:00:00 0,2 -2,0 -3,0 10,6 11,1 0 0 2 1 N 1030,1 20 0 0,0
21.03.2019 04:00:00 1,0 -1,6 -2,0 10,7 11,1 0 0 8 4 N 1030,0 20 0 0,0
21.03.2019 03:00:00 2,2 -0,7 -1,5 10,9 11,1 0 0 5 3 N 1030,4 20 0 0,0
21.03.2019 02:00:00 1,5 -1,7 -1,0 11,0 11,1 4 2 5 3 S 1030,7 11 0 0,0
21.03.2019 01:00:00 2,5 -1,3 -0,8 11,1 11,1 0 0 8 4 N 1030,8 20 0 0,0
21.03.2019 00:00:00 4,1 -0,3 0,4 11,1 11,1 3 1 5 3 S 1030,9 19 0 0,0
20.03.2019 23:00:00 6,0 -0,3 1,6 11,2 11,2 0 0 8 5 N 1031,2 20 0 0,0
20.03.2019 22:00:00 7,9 -1,1 2,5 11,2 11,2 4 2 11 6 W 1030,9 20 0 0,0
20.03.2019 21:00:00 9,7 -1,4 5,9 11,2 11,2 9 5 13 7 W 1030,5 20 0 0,0
20.03.2019 20:00:00 12,5 -2,6 8,9 11,0 11,1 6 4 12 7 NNW 1029,9 20 0 0,0
20.03.2019 19:00:00 13,9 -2,5 10,8 10,9 11,2 7 4 17 9 NW 1029,6 20 45 0,0
20.03.2019 18:00:00 15,8 -5,3 18,4 10,7 11,1 9 5 19 10 NNW 1029,1 20 60 0,0
20.03.2019 17:00:00 16,1 -2,0 19,0 10,4 11,1 8 4 26 14 W 1029,1 20 60 0,0
20.03.2019 16:00:00 15,5 -2,0 18,9 10,2 11,1 16 9 25 13 WNW 1029,3 20 60 0,0
20.03.2019 15:00:00 15,0 -1,2 19,1 10,0 11,2 9 5 23 13 NW 1030,1 20 60 0,0
20.03.2019 14:00:00 13,8 -1,4 17,6 9,8 11,1 10 5 24 13 W 1030,9 20 60 0,0
20.03.2019 13:00:00 12,6 0,7 16,7 9,7 11,1 11 6 24 13 W 1031,7 20 60 0,0
20.03.2019 12:00:00 11,4 0,5 16,1 9,7 11,1 9 5 17 9 WNW 1032,0 20 60 0,0
20.03.2019 11:00:00 10,1 1,7 14,0 9,7 11,1 5 3 11 6 NW 1032,5 20 60 0,0
20.03.2019 10:00:00 8,0 0,7 10,1 9,9 11,1 2 1 10 5 N 1032,5 20 60 0,0
20.03.2019 09:00:00 4,8 0,6 7,2 10,0 11,2 6 3 11 6 NW 1032,4 20 60 0,0
20.03.2019 08:00:00 2,1 0,5 -3,8 10,1 11,1 3 2 6 4 N 1032,2 20 41 0,0
20.03.2019 07:00:00 -1,4 -2,4 -3,7 10,3 11,1 0 0 5 3 N 1031,8 19 0 0,0
20.03.2019 06:00:00 -0,8 -1,9 -3,2 10,4 11,1 0 0 4 2 N 1031,3 20 0 0,0
20.03.2019 05:00:00 -0,3 -1,4 -3,0 10,6 11,1 0 0 5 3 N 1031,4 20 0 0,0
20.03.2019 04:00:00 -0,5 -1,9 -2,7 10,7 11,1 3 2 6 3 SSE 1031,2 19 0 0,0
20.03.2019 03:00:00 1,2 -0,1 -2,1 10,8 11,2 0 0 5 3 N 1031,2 20 0 0,0
20.03.2019 02:00:00 1,6 -0,3 -1,3 10,9 11,1 0 0 5 3 N 1031,4 20 0 0,0
20.03.2019 01:00:00 2,5 0,4 -0,7 11,0 11,1 0 0 5 3 N 1031,2 20 0 0,0
20.03.2019 00:00:00 5,4 1,7 0,9 11,1 11,1 4 2 8 5 WNW 1031,0 20 0 0,0
19.03.2019 23:00:00 5,7 2,3 1,4 11,1 11,1 4 2 10 5 W 1030,6 18 0 0,0
19.03.2019 22:00:00 7,1 3,0 4,3 11,2 11,1 6 3 16 9 WNW 1029,9 20 0 0,0
19.03.2019 21:00:00 7,9 3,2 6,2 11,2 11,1 10 5 18 10 WNW 1029,3 20 0 0,0
19.03.2019 20:00:00 9,3 3,5 8,0 11,1 11,1 11 6 20 11 W 1028,9 20 0 0,0
19.03.2019 19:00:00 10,9 3,0 9,8 11,1 11,1 13 7 23 13 W 1028,4 20 38 0,0
19.03.2019 18:00:00 11,3 4,0 10,9 11,0 11,1 16 9 29 16 WNW 1027,9 20 23 0,0
19.03.2019 17:00:00 11,4 3,4 11,0 10,9 11,1 16 9 30 16 NW 1027,5 20 0 0,0
19.03.2019 16:00:00 11,3 2,8 12,0 10,7 11,1 21 12 36 19 NNW 1027,4 20 19 0,0
19.03.2019 15:00:00 12,1 2,8 13,6 10,6 11,1 16 8 30 16 NNW 1027,0 20 22 0,0
19.03.2019 14:00:00 11,5 2,8 10,7 10,5 11,1 16 9 29 16 NW 1027,3 20 18 0,0
19.03.2019 13:00:00 12,0 4,0 12,2 10,4 11,1 12 7 26 14 NW 1027,7 20 22 0,0
19.03.2019 12:00:00 10,8 2,4 11,5 10,4 11,1 11 6 24 13 N 1027,9 20 36 0,0
19.03.2019 11:00:00 9,0 4,6 9,5 10,4 11,1 9 5 18 10 NNW 1028,1 20 12 0,0
19.03.2019 10:00:00 7,9 5,0 8,6 10,5 11,1 9 5 16 9 N 1027,9 20 0 0,0
19.03.2019 09:00:00 7,0 5,6 6,7 10,5 11,1 4 2 9 5 N 1027,6 20 6 0,0
19.03.2019 08:00:00 6,3 5,3 5,8 10,5 11,1 3 2 9 5 NW 1027,1 20 0 0,0
19.03.2019 07:00:00 6,0 5,1 5,4 10,6 11,1 7 4 11 6 WNW 1026,4 20 0 0,0
19.03.2019 06:00:00 6,0 5,0 5,3 10,7 11,1 5 3 15 8 WNW 1026,2 20 0 0,0
19.03.2019 05:00:00 6,3 5,3 5,8 10,7 11,1 7 4 14 8 NW 1026,3 20 0 0,0
19.03.2019 04:00:00 6,2 4,8 4,7 10,8 11,1 10 5 14 8 WNW 1026,0 20 0 0,0
19.03.2019 03:00:00 6,2 4,5 5,0 10,8 11,1 3 2 6 3 W 1026,3 17 0 0,0
19.03.2019 02:00:00 6,5 4,3 5,7 10,9 11,1 4 2 16 8 NW 1026,7 20 0 0,0
19.03.2019 01:00:00 7,2 4,3 6,2 10,9 11,1 7 4 14 8 N 1026,8 20 0 0,4
19.03.2019 00:00:00 7,6 5,4 6,8 10,9 11,1 6 3 10 6 NW 1026,8 20 0 0,0
18.03.2019 23:00:00 7,8 5,3 6,7 11,0 11,1 8 4 18 10 WNW 1026,9 20 0 0,0
18.03.2019 22:00:00 7,6 5,2 6,4 11,0 11,1 8 4 17 9 W 1027,0 20 0 0,2
18.03.2019 21:00:00 7,6 4,9 6,4 10,9 11,1 11 6 33 18 NNW 1027,1 14 0 1,4
18.03.2019 20:00:00 9,5 3,9 8,3 10,9 11,1 15 8 31 17 NW 1026,3 20 0 0,0
18.03.2019 19:00:00 10,5 3,3 9,7 10,8 11,1 16 9 42 23 WNW 1025,9 20 0 0,0
18.03.2019 18:00:00 12,4 0,2 11,9 10,7 11,1 19 11 32 17 NW 1025,3 20 2 0,0
18.03.2019 17:00:00 13,2 0,6 12,5 10,6 11,2 13 7 31 17 NW 1025,0 20 13 0,0
18.03.2019 16:00:00 12,5 0,9 13,0 10,5 11,1 18 10 37 20 WNW 1025,5 20 19 0,0
18.03.2019 15:00:00 12,7 2,0 12,8 10,4 11,1 19 11 36 20 WNW 1026,0 20 51 0,0
18.03.2019 14:00:00 11,4 2,1 12,3 10,3 11,1 17 9 29 16 WNW 1026,7 20 10 0,0
18.03.2019 13:00:00 11,4 1,6 12,0 10,2 11,1 14 8 27 15 NNW 1027,4 20 10 0,0
18.03.2019 12:00:00 9,9 2,0 11,3 10,2 11,1 14 7 24 13 NW 1027,9 20 6 0,0
18.03.2019 11:00:00 9,4 2,7 11,9 10,2 11,1 11 6 22 12 NW 1028,0 20 47 0,0
18.03.2019 10:00:00 8,2 4,8 8,6 10,3 11,1 11 6 19 10 NW 1027,8 19 43 0,0
18.03.2019 09:00:00 6,2 4,0 5,0 10,4 11,1 13 7 17 9 WNW 1027,4 20 29 0,0
18.03.2019 08:00:00 4,6 3,1 0,1 10,5 11,1 7 4 12 6 WNW 1027,1 20 28 0,0
18.03.2019 07:00:00 3,5 2,2 0,3 10,6 11,1 2 1 10 5 W 1026,6 20 0 0,0
18.03.2019 06:00:00 4,5 2,7 3,0 10,7 11,1 8 4 15 8 WNW 1026,1 20 0 0,0
18.03.2019 05:00:00 5,1 2,9 3,7 10,8 11,1 8 4 16 8 W 1025,4 20 0 0,0
18.03.2019 04:00:00 4,8 2,7 3,7 10,9 11,1 9 5 16 9 WNW 1025,0 20 0 0,0
18.03.2019 03:00:00 4,9 2,9 2,3 11,0 11,1 6 3 12 6 W 1025,0 20 0 0,0
18.03.2019 02:00:00 5,1 2,6 4,0 11,1 11,1 8 5 23 12 W 1025,1 20 0 0,0
18.03.2019 01:00:00 5,6 2,2 4,5 11,2 11,1 12 6 24 13 WNW 1025,0 20 0 0,0
18.03.2019 00:00:00 5,9 2,0 4,7 11,3 11,0 11 6 20 11 W 1025,2 20 0 0,0
17.03.2019 23:00:00 6,4 1,3 5,0 11,4 11,1 12 7 19 11 WNW 1025,0 20 0 0,0
17.03.2019 22:00:00 7,1 1,2 4,7 11,4 11,0 14 7 21 11 WNW 1024,4 20 0 0,0
17.03.2019 21:00:00 8,3 1,0 6,6 11,5 11,0 11 6 23 12 WNW 1023,8 20 0 0,0
17.03.2019 20:00:00 9,0 0,9 7,3 11,5 11,0 13 7 31 17 WNW 1022,7 20 0 0,0
17.03.2019 19:00:00 11,0 0,7 9,7 11,4 11,0 25 14 41 22 NW 1021,8 20 30 0,0
17.03.2019 18:00:00 12,2 1,2 11,5 11,5 11,0 22 12 49 26 NW 1020,6 20 41 0,0
17.03.2019 17:00:00 12,9 3,8 12,5 11,4 11,0 24 13 44 24 WNW 1020,0 20 46 0,0
17.03.2019 16:00:00 11,5 4,5 11,1 11,3 11,0 23 13 39 21 WNW 1020,3 20 8 0,0
17.03.2019 15:00:00 10,8 7,8 10,4 11,3 11,0 14 8 39 21 NW 1020,2 20 1 0,2
17.03.2019 14:00:00 10,6 7,3 9,5 11,3 11,0 18 10 45 24 NW 1019,7 20 0 0,2
17.03.2019 13:00:00 12,3 10,0 11,4 11,3 11,0 19 10 40 22 WNW 1018,8 20 0 0,2
17.03.2019 12:00:00 13,8 8,4 12,7 11,3 11,0 16 9 29 16 WNW 1018,3 20 4 0,0
17.03.2019 11:00:00 12,3 8,4 12,0 11,3 11,0 9 5 24 13 WSW 1018,6 20 0 0,0
17.03.2019 10:00:00 11,3 8,2 11,6 11,3 10,9 9 5 21 12 SW 1018,7 19 0 0,0
17.03.2019 09:00:00 10,6 8,4 9,5 11,4 11,0 9 5 16 9 SW 1018,6 13 0 0,0
17.03.2019 08:00:00 9,3 7,6 8,2 11,4 10,9 6 3 12 6 SSW 1017,8 16 0 0,0
17.03.2019 07:00:00 8,9 7,2 8,2 11,6 10,9 4 2 10 6 SSW 1017,0 14 0 0,0
17.03.2019 06:00:00 8,6 6,7 7,1 11,7 10,9 6 4 18 10 WNW 1016,2 16 0 0,0
17.03.2019 05:00:00 7,1 5,6 5,0 11,8 10,9 10 6 19 11 WNW 1015,4 20 0 0,0
17.03.2019 04:00:00 6,2 4,7 2,5 11,9 10,9 10 6 16 9 W 1014,2 20 0 0,0
17.03.2019 03:00:00 5,7 4,2 2,0 12,0 10,9 4 2 11 6 W 1013,7 20 0 0,0
17.03.2019 02:00:00 5,5 4,0 2,2 12,2 10,9 4 2 6 3 NNW 1013,9 20 0 0,0
17.03.2019 01:00:00 5,9 4,2 2,7 12,3 10,9 3 1 8 4 SE 1013,7 20 0 0,0
17.03.2019 00:00:00 6,9 4,7 4,2 12,4 10,9 5 3 10 6 E 1014,6 20 0 0,0
16.03.2019 23:00:00 8,4 5,5 3,5 12,4 10,9 8 4 11 6 ENE 1015,1 20 0 0,0
16.03.2019 22:00:00 8,1 5,0 4,6 12,5 10,9 3 2 8 4 E 1015,2 20 0 0,0
16.03.2019 21:00:00 9,2 5,4 5,2 12,4 10,9 3 2 6 4 ESE 1015,3 20 0 0,0
16.03.2019 20:00:00 12,3 6,1 7,7 12,3 10,9 3 1 8 5 ESE 1015,1 20 0 0,0
16.03.2019 19:00:00 16,3 5,8 12,6 12,1 10,9 4 2 13 7 ESE 1015,2 20 40 0,0
16.03.2019 18:00:00 17,8 6,6 19,1 11,9 10,9 9 5 14 8 S 1015,9 20 60 0,0

tt = temperature
td = dewpoint
tt 5cm = temperature 5cm
tt -20cm = temperature -20cm
tt -100cm = temperature -100cm
ff = wind speed
fx = gusts
dd = wind direction
ppp = reduced air pressure
vv = visibility
sd = sunshine duration
rr = precipitation

Next stations